This demonstration page uses our WeatherBlox Daily Observations layout. Learn more.

Left ArrowRight Arrow

Hourly Observations for April 27, 2017

Temp ( °F °C ) Dew Point ( °F °C ) Humidity (%) Winds ( mph kmh ) Pressure ( in mb ) Visibility ( mi km ) Precip ( " mm )
12:15 am 00:15 Clear 61 16 61 16 100 100 N N/A 29.85 1011 10 16 N/A
12:35 am 00:35 Clear 61 16 61 16 100 100 ESE 3 6 29.85 1011 10 16 N/A
12:55 am 00:55 Clear 61 16 61 16 100 100 ESE 3 6 29.85 1011 10 16 N/A
1:15 am 01:15 Clear 59 15 59 15 100 100 ESE 3 6 29.85 1011 10 16 N/A
1:35 am 01:35 Clear 59 15 59 15 100 100 ESE 3 6 29.83 1010 10 16 N/A
1:55 am 01:55 Clear 59 15 59 15 100 100 ESE 3 6 29.83 1010 10 16 N/A
2:15 am 02:15 Mostly Cloudy 59 15 59 15 100 100 E 5 7 29.83 1010 10 16 N/A
2:35 am 02:35 Cloudy 57 14 57 14 100 100 N N/A 29.83 1010 10 16 N/A
2:55 am 02:55 Cloudy 59 15 59 15 100 100 ESE 3 6 29.83 1010 7 11 N/A
3:15 am 03:15 Cloudy 59 15 59 15 100 100 N N/A 29.83 1010 7 11 N/A
3:35 am 03:35 Cloudy 59 15 59 15 100 100 N N/A 29.83 1010 10 16 N/A
3:55 am 03:55 Cloudy 59 15 59 15 100 100 N N/A 29.83 1010 10 16 N/A
4:15 am 04:15 Cloudy 59 15 59 15 100 100 N N/A 29.83 1010 7 11 N/A
4:35 am 04:35 Cloudy 59 15 59 15 100 100 N N/A 29.83 1010 7 11 N/A
4:55 am 04:55 Cloudy with Mist and Fog 59 15 59 15 100 100 ESE 3 6 29.83 1010 5 8 N/A
5:15 am 05:15 Cloudy with Mist and Fog 59 15 59 15 100 100 N N/A 29.83 1010 5 8 N/A
5:35 am 05:35 Cloudy with Mist and Fog 59 15 59 15 100 100 N N/A 29.83 1010 5 8 N/A
5:55 am 05:55 Cloudy with Mist and Fog 59 15 59 15 100 100 ESE 5 7 29.83 1010 5 8 N/A
6:15 am 06:15 Cloudy with Mist and Fog 59 15 59 15 100 100 E 3 6 29.83 1010 5 8 N/A
6:35 am 06:35 Cloudy with Mist and Fog 59 15 59 15 100 100 E 3 6 29.83 1010 3 5 N/A
6:55 am 06:55 Cloudy with Mist and Fog 59 15 59 15 100 100 N N/A 29.83 1010 2 3 N/A
7:15 am 07:15 Cloudy with Mist and Fog 59 15 59 15 100 100 N N/A 29.85 1011 2 3 N/A
7:35 am 07:35 Cloudy with Mist and Fog 59 15 59 15 100 100 E 3 6 29.85 1011 1 2 N/A
7:55 am 07:55 Cloudy with Mist and Fog 59 15 59 15 100 100 ESE 6 9 29.85 1011 1 1 N/A
8:15 am 08:15 Cloudy with Fog 59 15 59 15 100 100 N N/A 29.85 1011 0 0 N/A
8:35 am 08:35 Cloudy with Fog 59 15 59 15 100 100 N N/A 29.85 1011 1 1 N/A
8:55 am 08:55 Cloudy with Mist and Fog 61 16 61 16 100 100 ESE 5 7 29.85 1011 1 1 N/A
9:15 am 09:15 Cloudy with Mist and Fog 61 16 61 16 100 100 E 5 7 29.85 1011 1 1 N/A
9:35 am 09:35 Cloudy with Mist and Fog 61 16 61 16 100 100 N N/A 29.88 1012 2 2 N/A
9:55 am 09:55 Cloudy with Mist and Fog 61 16 61 16 100 100 S 6 9 29.88 1012 4 6 N/A
10:15 am 10:15 Cloudy with Mist and Fog 63 17 63 17 100 100 S 6 9 29.88 1012 5 8 N/A
10:35 am 10:35 Cloudy with Mist and Fog 63 17 63 17 100 100 SSE 3 6 29.88 1012 4 6 N/A
10:55 am 10:55 Cloudy with Mist and Fog 63 17 63 17 100 100 SE 6 9 29.88 1012 4 6 N/A
11:15 am 11:15 Cloudy with Mist and Fog 64 18 64 18 100 100 SSE 3 6 29.88 1012 4 6 N/A
11:35 am 11:35 Cloudy with Mist and Fog 66 19 64 18 94 94 S 6 9 29.88 1012 5 8 N/A
11:55 am 11:55 Cloudy 68 20 64 18 88 88 SSW 5 7 29.88 1012 7 11 N/A
12:15 pm 12:15 Mostly Cloudy 70 21 66 19 88 88 S 8 13 29.85 1011 10 16 N/A
12:35 pm 12:35 Partly Cloudy 72 22 64 18 78 78 SSE 5 7 29.83 1010 10 16 N/A
12:55 pm 12:55 Partly Cloudy 73 23 66 19 78 78 S 6 9 29.83 1010 10 16 N/A
1:15 pm 13:15 Sunny 75 24 66 19 74 74 S 8 13 29.80 1009 10 16 N/A
1:35 pm 13:35 Sunny 77 25 66 19 69 69 SSW 10 17 29.80 1009 10 16 N/A
1:55 pm 13:55 Sunny 81 27 68 20 66 66 SSW 13 20 29.80 1009 10 16 N/A
2:15 pm 14:15 Partly Cloudy 79 26 68 20 70 70 S 8 13 29.80 1009 10 16 N/A
2:35 pm 14:35 Partly Cloudy 82 28 66 19 58 58 SSW 16 26 29.80 1009 10 16 N/A
2:55 pm 14:55 Partly Cloudy 82 28 64 18 55 55 S 17 28 29.74 1007 10 16 N/A
3:15 pm 15:15 Partly Cloudy 82 28 64 18 55 55 S 12 19 29.74 1007 10 16 N/A
3:35 pm 15:35 Sunny 82 28 63 17 51 51 S 14 22 29.74 1007 10 16 N/A
3:55 pm 15:55 Sunny 82 28 63 17 51 51 SSW 15 24 29.74 1007 10 16 N/A
4:15 pm 16:15 Partly Cloudy 82 28 63 17 51 51 SSW 16 26 29.74 1007 10 16 N/A
4:35 pm 16:35 Mostly Cloudy 86 30 63 17 46 46 SSW 14 22 29.74 1007 10 16 N/A
4:55 pm 16:55 Mostly Cloudy 84 29 63 17 48 48 S 17 28 29.74 1007 10 16 N/A
5:15 pm 17:15 Partly Cloudy 84 29 61 16 45 45 SSW 15 24 29.71 1006 10 16 N/A
5:35 pm 17:35 Sunny 82 28 61 16 48 48 SSW 15 24 29.74 1007 10 16 N/A
5:55 pm 17:55 Sunny 81 27 61 16 51 51 S 9 15 29.77 1008 10 16 N/A
6:15 pm 18:15 Sunny 81 27 61 16 51 51 S 12 19 29.77 1008 10 16 N/A
6:35 pm 18:35 Sunny 81 27 61 16 51 51 S 9 15 29.77 1008 10 16 N/A
6:55 pm 18:55 Sunny 81 27 61 16 51 51 S 10 17 29.77 1008 10 16 N/A
7:15 pm 19:15 Sunny 79 26 61 16 54 54 SSW 10 17 29.77 1008 10 16 N/A
7:35 pm 19:35 Sunny 79 26 61 16 54 54 S 12 19 29.77 1008 10 16 N/A
7:55 pm 19:55 Sunny 79 26 61 16 54 54 S 10 17 29.77 1008 10 16 N/A
8:15 pm 20:15 Clear 79 26 61 16 54 54 S 10 17 29.77 1008 10 16 N/A
8:35 pm 20:35 Clear with Nearby Thunderstorms 77 25 61 16 57 57 S 5 7 29.77 1008 10 16 N/A
8:55 pm 20:55 Clear 77 25 61 16 57 57 SSW 6 9 29.77 1008 10 16 N/A
9:15 pm 21:15 Partly Cloudy 77 25 61 16 57 57 SSW 8 13 29.80 1009 10 16 N/A
9:35 pm 21:35 Partly Cloudy 77 25 61 16 57 57 SSW 10 17 29.83 1010 10 16 N/A
9:55 pm 21:55 Clear 77 25 61 16 57 57 SSW 10 17 29.80 1009 10 16 N/A
10:15 pm 22:15 Partly Cloudy with Light Rain 73 23 63 17 69 69 SSW 13 20 29.83 1010 10 16 N/A
10:35 pm 22:35 Clear 73 23 63 17 69 69 SSW 9 15 29.83 1010 10 16 N/A
10:55 pm 22:55 Partly Cloudy 73 23 61 16 65 65 SSW 7 11 29.83 1010 10 16 N/A
11:15 pm 23:15 Clear 72 22 63 17 73 73 SSW 5 7 29.83 1010 10 16 N/A
11:35 pm 23:35 Clear 72 22 63 17 73 73 SSW 6 9 29.83 1010 10 16 N/A
11:55 pm 23:55 Clear 72 22 63 17 73 73 SW 7 11 29.83 1010 10 16 N/A

Powered by AerisWeather